Location: Newark
(46.0333°N, 5.8167°E)
Time: 13:30:48
(UTC+00:00)

Envisat - Pass Details

Date: 22 September 2019
Orbit: 764 x 766 km, 98.1° (Epoch: 22 October)

Event Time Altitude Azimuth Distance (km) Brightness Sun altitude
Rises 18:08:23 0° 180° (S) 3,219 6.2 -6.6°
Reaches altitude 10° 18:10:45 10° 186° (S) 2,298 5.5 -7.0°
Maximum altitude 18:15:39 48° 261° (W) 991 4.2 -7.8°
Drops below altitude 10° 18:20:35 10° 336° (NNW) 2,314 6.0 -8.7°
Sets 18:22:59 0° 342° (NNW) 3,245 6.7 -9.1°
